sat.trackr.live / text

‹ back to catalog

STARLINK-2610

NORAD 48376 · 2021-038Z

PAYLOAD ACTIVE UNKNOWN

§ Identity

Operator
Country
US
Launch date
2021-05-04
Launch site
AFETR
Launch vehicle
Mass (kg)
RCS (m²)

Purposes: comms

External: N2YO · Heavens-Above · Gunter

§ Orbital elements

Epoch: 2026-09-15T00:00:02.000160Z

Period
90.65 min
Inclination
53.1483°
Eccentricity
0.0004851
Mean motion
15.88611246 rev/d
Perigee alt
302.9 km
Apogee alt
309.4 km
Semi-major
6,684.3 km
B*
7.5844e-4
RAAN
152.2387°
Arg perigee
128.6425°
Mean anomaly
123.3398°
Rev number
602

§ Raw data

STARLINK-26101 48376U 21038Z   26258.00002315  .00221887  00000+0  75844-3 0  99942 48376  53.1483 152.2387 0004851 128.6425 123.3398 15.88611246  6027

JSON: /api/v1/satellites/48376 · /tle

For live sub-satellite position, see the globe view (requires WebGL).

§ Visibility from observer

Set your observer location to see the next 7 days of passes ≥ 10°. The values pass through the URL so the page stays shareable.

No JS? Fill the form by hand. The geolocation button needs JavaScript.